Regional Weather Roundup
Issued by NWS

Home | Current Version | Previous Version | Text Only | Print | Product List | Glossary On
Versions: 1 2 3 4 5 6 7 8 9 10 11 12 13 14 15 16 17 18 19 20 21 22 23 24 25 26 27 28 29 30 31 32 33 34 35 36 37 38 39 40 41 42 43 44 45 46 47 48 49 50
000
ASUS43 KMPX 301310
RWRMN
WEATHER ROUNDUP FOR MINNESOTA
NATIONAL WEATHER SERVICE TWIN CITIES/CHANHASSEN MN
800 AM CDT THU MAR 30 2017


NOTE: "FAIR" INDICATES FEW OR NO CLOUDS BELOW 12,000 FEET WITH NO
SIGNIFICANT WEATHER AND/OR OBSTRUCTIONS TO VISIBILITY. N/A MEANS
CURRENT SKY AND/OR WEATHER CONDITIONS ARE NOT AVAILABLE.

MNZ060>063-068>070-301400-
   Twin Cities Metro

CITY           SKY/WX    TMP DP  RH WIND       PRES   REMARKS
TWIN CITIES    CLOUDY    39  34  82 E14       29.94S
ST PAUL        CLOUDY    39  36  89 E10       29.96S
CRYSTAL        CLOUDY    39  34  82 NE10G16   29.94S
BLAINE         CLOUDY    39  37  93 NE13G18   29.95S
LAKEVILLE      CLOUDY    36  36 100 NE9       29.91F
EDEN PRAIRIE   CLOUDY    40  35  83 NE12G20   29.92S
SOUTH ST PAUL  CLOUDY    38  37  94 NE7       29.94F FOG
LAKE ELMO      CLOUDY    37  36  93 NE12      29.95F
$$
MNZ001>005-007-008-013>017-022>024-027-028-301400-
   Northwest Minnesota

CITY           SKY/WX    TMP DP  RH WIND       PRES   REMARKS
BEMIDJI        CLOUDY    30  29  98 CALM      29.99S FOG
HALLOCK        CLOUDY    37  36  93 S15       29.91F
ROSEAU         CLOUDY    37  34  87 S8        29.96S
WARROAD        PTCLDY    36  32  87 S9        29.97F
THIEF RVR FALL CLEAR     33  32  96 SE9       29.97F WCI  25
CROOKSTON      PTCLDY    34  34 100 SE9       29.97F FOG     WCI  26
FOSSTON        FOG       34  34 100 SE5       29.98S VSB 1/4 WCI  30
DETROIT LAKES  CLOUDY    36  36 100 SE7       29.95F
MOORHEAD       CLEAR     34  32  93 CALM      29.96F FOG
PARK RAPIDS    CLOUDY    32  29  88 E5        29.96F FOG     WCI  27
MAHNOMEN       FOG       35  34  98 E3        29.96F VSB 1/2
$$
MNZ006-009>011-018-025>026-301400-
   North Central Minnesota

CITY           SKY/WX    TMP DP  RH WIND       PRES   REMARKS
BAUDETTE       CLEAR     31  28  89 SE6       30.00S WCI  25
FLAG ISLAND    CLOUDY    34  30  86 S17       29.96F WCI  23
INTL FALLS       N/A     29  24  82 E5        30.03S WCI  24
WASKISH        CLEAR     32  30  93 CALM      30.01R
BIG FORK       PTCLDY    28  27  93 CALM      30.01F
LONGVILLE      FOG       28  27  93 CALM      29.98F VSB 1/4
GRAND RAPIDS   FOG       27  27 100 E5        30.02F VSB 1/4 WCI  22
CRANE LAKE     SUNNY     23  21  93 CALM      30.05F
ORR            SUNNY     27  23  86 CALM      30.00F
COOK           SUNNY     27  25  93 CALM      30.02F
WALKER         FAIR      28  28  96 CALM      29.98S
$$
MNZ012-019>021-037-301400-
   Northeast Minnesota

CITY           SKY/WX    TMP DP  RH WIND       PRES   REMARKS
DULUTH         CLOUDY    32  29  88 E9        30.01F WCI  24
ELY            CLOUDY    27  27 100 CALM      30.03F
HIBBING        CLOUDY    26  26 100 CALM      30.01F
EVELETH        SUNNY     30  28  93 NE3       30.02F
DULUTH HARBOR  CLOUDY    36  32  87 NE16      30.06S
TWO HARBORS    CLOUDY    34  28  80 NE5       30.02S WCI  30
GRAND MARAIS     N/A     36  27  69 NE10      30.10S
G MARAIS ARPRT CLOUDY    27  21  80 NE6       30.05F WCI  20
$$
MNZ029>031-032-039>041-046>048-054>057-064-301400-
   West Central Minnesota

CITY           SKY/WX    TMP DP  RH WIND       PRES   REMARKS
FERGUS FALLS   CLEAR     36  36 100 E5        29.98F FOG
WHEATON        CLEAR     36  34  93 E5        29.96S
MORRIS         CLOUDY    39  36  87 E12       29.92F
ALEXANDRIA     CLOUDY    37  34  89 E10       29.95F
ELBOW LAKE     FAIR      37  36  94 SE9       29.94F FOG
WADENA         CLOUDY    30  30 100 E6        29.95F WCI  24
GLENWOOD       CLOUDY    36  36 100 NE10      29.95F
APPLETON       CLOUDY    39  37  93 E9        29.92F
BENSON         CLOUDY    41  36  81 E7        29.95F
ORTONVILLE     CLOUDY    37  36  93 E8        29.92F
MADISON        CLOUDY    41  41 100 E9        29.92F
WILLMAR        CLOUDY    39  37  93 NE12      29.94F
$$
MNZ033>034-036-042>043-049>051-058-059-301400-
   Central Minnesota

CITY           SKY/WX    TMP DP  RH WIND       PRES   REMARKS
ST CLOUD       CLOUDY    36  32  85 NE8       29.96F
SAUK CENTRE    CLOUDY    36  33  90 NE6       29.95F
PAYNESVILLE    CLOUDY    37  37 100 NE10      29.94F
AITKIN         CLOUDY    34  28  80 NE6       29.98F WCI  29
PINE RIVER     FOG       28  28 100 CALM      30.02F VSB 1
BRAINERD       CLOUDY    31  29  92 NE6       29.98F WCI  25
STAPLES        CLOUDY    30  28  93 CALM      29.97F
LONG PRAIRIE   CLOUDY    34  32  93 N3        29.96S
LITTLE FALLS   CLOUDY    34  30  86 CALM      29.97F
LITCHFIELD     CLOUDY    39  36  87 NE9       29.93F
BUFFALO        CLOUDY    37  33  86 NE10      29.95F
MAPLE LAKE     CLOUDY    37  34  90 NE8       29.95F
HUTCHINSON     CLOUDY    39  38  94 NE12      29.93F
$$
MNZ037-044-045-052-053-301400-
   East Central Minnesota

CITY           SKY/WX    TMP DP  RH WIND       PRES   REMARKS
PRINCETON      CLOUDY    36  30  80 NE5       29.97F
MORA           CLOUDY    32  30  93 NE5       30.00F WCI  27
CAMBRIDGE      CLOUDY    37  28  70 NE6       29.95F
RUSH CITY      CLOUDY    34  30  85 NE7       29.98F WCI  28
MOOSE LAKE     CLOUDY    32  32 100 NE3       30.00S
CLOQUET        CLOUDY    32  30  93 E7        30.01F WCI  26
MCGREGOR       CLOUDY    32  30  93 E8        30.01S WCI  25
$$
MNZ071>073-080-081-089-090-097-098-301400-
   Southwest Minnesota

CITY           SKY/WX    TMP DP  RH WIND       PRES   REMARKS
MONTEVIDEO     CLOUDY    37  37 100 E8        29.92F
GRANITE FALLS  CLOUDY    40  37  89 NE9       29.93F
CANBY          CLOUDY    39  38  97 CALM      29.92F
MARSHALL       CLOUDY    38  36  92 NE14      29.90S
REDWOOD FALLS  CLOUDY    39  36  89 NE8       29.90F
OLIVIA         CLOUDY    39  36  87 NE10      29.91S
PIPESTONE      CLOUDY    37  34  87 E8G16     29.86S
WINDOM         CLOUDY    37  36  93 NE13G21   29.86S
WORTHINGTON    CLOUDY    36  35  96 NE15      29.85S
JACKSON          N/A     36  36 100 NE15G24   29.85R FOG
TRACY          CLOUDY    38  38  98 NE9       29.89S
SLAYTON        CLOUDY    35  35  99 NE12G17   29.87S FOG     WCI  27
$$
MNZ065>067-074>077-082>085-091>093-301400-
   South Central Minnesota

CITY           SKY/WX    TMP DP  RH WIND       PRES   REMARKS
MANKATO        CLOUDY    38  35  89 NE17      29.87F
NEW ULM        CLOUDY    37  36  93 NE13      29.88S
ST JAMES       CLOUDY    37  37 100 NE7G16    29.88R
FAIRMONT       CLOUDY    37  35  92 NE18      29.84S
GLENCOE        CLOUDY    38  39 100 NE7       29.91F
FARIBAULT      CLOUDY    37  36  93 N10G18    29.89F
OWATONNA       CLOUDY    37  36  93 NE16G22   29.87S
WASECA         CLOUDY    36  34  93 NE16G24   29.87F FOG
ALBERT LEA     LGT RAIN  36  36 100 NE14      29.83F
$$
MNZ078>079-086>088-094>096-301400-
   Southeast Minnesota

CITY           SKY/WX    TMP DP  RH WIND       PRES   REMARKS
ROCHESTER      CLOUDY    36  36 100 NE15      29.85F FOG
RED WING       CLOUDY    37  36  93 E7        29.92S
STANTON        CLOUDY    38  35  90 NE10      29.90S
DODGE CENTER   CLOUDY    36  36 100 NE20G25   29.85F FOG
WINONA         CLOUDY    37  36  93 E7G17     29.89F
AUSTIN         CLOUDY    37  34  87 NE14G21   29.83S
PRESTON        CLOUDY    35  34  95 NE8       29.84S FOG     WCI  29
$$
ABBREVIATIONS USED IN REMARKS
   TC - TEMPERATURES IN CELSIUS
  WCI - WIND CHILL INDEX
   HX - HEAT INDEX
  VSB - VISIBILITY
$$




USA.gov is the U.S. government's official web portal to all federal, state and local government web resources and services.